Cambridge, MN

1:51 PM CST on December 07, 2019 (GMT -0600)
Cambridge Municipal

Weather History for KCBG - July, 2019

Change the Weather History Date:

Sunday, July 21, 2019

  Actual Average Record
Temperature  
Mean Temperature 68 °F -  
Max Temperature 82 °F 81 °F 98 °F (2004)
Min Temperature 55 °F 57 °F 45 °F (1970)
Cooling Degree Days 4    
Growing Degree Days 18 (Base 50)    
Moisture  
Dew Point 56 °F    
Average Humidity 62    
Maximum Humidity 77    
Minimum Humidity 45    
Precipitation  
Precipitation 0.00 in - - ()
Sea Level Pressure  
Sea Level Pressure 30.08 in    
Wind  
Wind Speed 2 mph (NNW)    
Max Wind Speed 13 mph    
Max Gust Speed 20 mph    
Visibility 10 miles    
Events      
Averages and records for this station are not official NWS values.
T = Trace of Precipitation, MM = Missing Value Source: NWS Daily Summary

Daily Weather History Graph

Daily Weather History Graph

Search for Another Location

Airport or City:

Astronomy

Jul. 21, 2019 Rise Set
Actual Time 5:44 AM CDT 8:53 PM CDT
Civil Twilight 5:08 AM CDT 9:29 PM CDT
Nautical Twilight 4:22 AM CDT 10:15 PM CDT
Astronomical Twilight 3:25 AM CDT 11:11 PM CDT
Moon 11:36 PM CDT (7/21) 10:16 AM CDT (7/21)
Length of Visible Light 16h 20m
Length of Day
15h 09m
Waning Gibbous, 80% of the Moon is Illuminated
Jul 21
Waning Gibbous
Jul 24
Last Quarter
Jul 31
New
Aug 7
First Quarter
Aug 15
Full

Hourly Weather History & Observations

Time (CDT) Temp. Heat Index Dew Point Humidity Pressure Visibility Wind Dir Wind Speed Gust Speed Precip Events Conditions
12:16 AM 62.6 °F - 51.8 °F 68% 30.00 in 7.0 mi Calm Calm - N/A   Clear
12:36 AM 60.8 °F - 51.8 °F 72% 30.00 in 7.0 mi Calm Calm - N/A   Clear
12:55 AM 60.8 °F - 51.8 °F 72% 30.01 in 10.0 mi Calm Calm - N/A   Clear
12:56 AM 60.8 °F - 51.8 °F 72% 30.01 in 10.0 mi Calm Calm - N/A   Clear
1:15 AM 60.8 °F - 51.8 °F 72% 30.02 in 10.0 mi Calm Calm - N/A   Clear
1:20 AM 60.8 °F - 51.8 °F 72% 30.02 in 10.0 mi Calm Calm - N/A   Clear
1:38 AM 60.8 °F - 51.8 °F 72% 30.02 in 10.0 mi Calm Calm - N/A   Clear
1:56 AM 60.8 °F - 51.8 °F 72% 30.02 in 10.0 mi Calm Calm - N/A   Clear
2:15 AM 60.8 °F - 51.8 °F 72% 30.02 in 10.0 mi Calm Calm - N/A   Clear
2:16 AM 60.8 °F - 51.8 °F 72% 30.02 in 10.0 mi Calm Calm - N/A   Clear
2:35 AM 59.0 °F - 50.0 °F 72% 30.02 in 10.0 mi Calm Calm - N/A   Clear
2:36 AM 59.0 °F - 50.0 °F 72% 30.02 in 10.0 mi Calm Calm - N/A   Clear
2:58 AM 59.0 °F - 50.0 °F 72% 30.02 in 10.0 mi Calm Calm - N/A   Clear
3:16 AM 57.2 °F - 48.2 °F 72% 30.02 in 10.0 mi Calm Calm - N/A   Clear
3:36 AM 57.2 °F - 48.2 °F 72% 30.02 in 10.0 mi Calm Calm - N/A   Clear
3:55 AM 59.0 °F - 50.0 °F 72% 30.03 in 7.0 mi Calm Calm - N/A   Clear
3:56 AM 59.0 °F - 50.0 °F 72% 30.03 in 7.0 mi Calm Calm - N/A   Clear
4:15 AM 59.0 °F - 50.0 °F 72% 30.03 in 3.0 mi Calm Calm - N/A   Haze
4:38 AM 57.2 °F - 48.2 °F 72% 30.03 in 7.0 mi Calm Calm - N/A   Clear
4:55 AM 57.2 °F - 48.2 °F 72% 30.04 in 7.0 mi Calm Calm - N/A   Clear
5:15 AM 57.2 °F - 48.2 °F 72% 30.03 in 10.0 mi Calm Calm - N/A   Clear
5:16 AM 57.2 °F - 48.2 °F 72% 30.03 in 10.0 mi Calm Calm - N/A   Clear
5:35 AM 55.4 °F - 48.2 °F 77% 30.04 in 10.0 mi Calm Calm - N/A   Clear
5:36 AM 55.4 °F - 48.2 °F 77% 30.04 in 10.0 mi Calm Calm - N/A   Clear
5:58 AM 55.4 °F - 48.2 °F 77% 30.04 in 10.0 mi Calm Calm - N/A   Clear
6:17 AM 57.2 °F - 48.2 °F 72% 30.04 in 10.0 mi Calm Calm - N/A   Clear
6:36 AM 59.0 °F - 50.0 °F 72% 30.04 in 10.0 mi Calm Calm - N/A   Clear
6:55 AM 62.6 °F - 53.6 °F 72% 30.05 in 10.0 mi Calm Calm - N/A   Clear
6:56 AM 62.6 °F - 53.6 °F 72% 30.05 in 10.0 mi Calm Calm - N/A   Clear
7:15 AM 62.6 °F - 55.4 °F 77% 30.05 in 10.0 mi Calm Calm - N/A   Clear
7:37 AM 66.2 °F - 57.2 °F 73% 30.06 in 10.0 mi Calm Calm - N/A   Clear
7:55 AM 68.0 °F - 59.0 °F 73% 30.07 in 10.0 mi Calm Calm - N/A   Clear
8:15 AM 69.8 °F - 60.8 °F 73% 30.08 in 10.0 mi Calm Calm - N/A   Clear
8:16 AM 69.8 °F - 60.8 °F 73% 30.08 in 10.0 mi Calm Calm - N/A   Clear
8:35 AM 71.6 °F - 60.8 °F 69% 30.08 in 10.0 mi Calm Calm - N/A   Clear
8:58 AM 69.8 °F - 60.8 °F 73% 30.08 in 10.0 mi Calm Calm - N/A   Clear
9:15 AM 71.6 °F - 62.6 °F 73% 30.08 in 10.0 mi North 3.5 mph - N/A   Clear
9:35 AM 73.4 °F - 62.6 °F 69% 30.09 in 10.0 mi Calm Calm - N/A   Clear
9:36 AM 73.4 °F - 64.4 °F 73% 30.09 in 10.0 mi Calm Calm - N/A   Clear
9:55 AM 75.2 °F - 64.4 °F 69% 30.10 in 10.0 mi Calm Calm - N/A   Clear
9:56 AM 75.2 °F - 64.4 °F 69% 30.10 in 10.0 mi Calm Calm - N/A   Clear
10:18 AM 77.0 °F - 62.6 °F 61% 30.10 in 10.0 mi Calm Calm - N/A   Clear
10:36 AM 75.2 °F - 60.8 °F 61% 30.10 in 10.0 mi North 5.8 mph - N/A   Clear
10:55 AM 75.2 °F - 60.8 °F 61% 30.10 in 10.0 mi NW 3.5 mph - N/A   Clear
10:56 AM 75.2 °F - 60.8 °F 61% 30.11 in 10.0 mi WNW 4.6 mph - N/A   Clear
11:15 AM 78.8 °F - 60.8 °F 54% 30.11 in 10.0 mi NW 4.6 mph - N/A   Clear
11:16 AM 78.8 °F - 60.8 °F 54% 30.11 in 10.0 mi NW 4.6 mph - N/A   Clear
11:39 AM 78.8 °F - 60.8 °F 54% 30.11 in 10.0 mi WNW 4.6 mph - N/A   Clear
11:56 AM 78.8 °F - 60.8 °F 54% 30.12 in 10.0 mi WNW 5.8 mph - N/A   Clear
12:16 PM 78.8 °F - 60.8 °F 54% 30.11 in 10.0 mi NNW 10.4 mph - N/A   Clear
12:35 PM 78.8 °F - 60.8 °F 54% 30.10 in 10.0 mi NNW 6.9 mph - N/A   Clear
12:36 PM 78.8 °F - 60.8 °F 54% 30.10 in 10.0 mi NNW 6.9 mph - N/A   Clear
12:55 PM 80.6 °F 81.5 °F 60.8 °F 51% 30.10 in 10.0 mi North 6.9 mph 16.1 mph N/A   Scattered Clouds
12:59 PM 80.6 °F 81.5 °F 60.8 °F 51% 30.10 in 10.0 mi NNW 10.4 mph 16.1 mph N/A   Scattered Clouds
1:16 PM 80.6 °F 81.5 °F 60.8 °F 51% 30.10 in 10.0 mi North 12.7 mph 16.1 mph N/A   Scattered Clouds
1:35 PM 80.6 °F 81.5 °F 60.8 °F 51% 30.10 in 10.0 mi NW 12.7 mph 19.6 mph N/A   Clear
1:36 PM 80.6 °F 81.5 °F 60.8 °F 51% 30.10 in 10.0 mi NW 11.5 mph 16.1 mph N/A   Clear
1:55 PM 80.6 °F 81.5 °F 60.8 °F 51% 30.10 in 10.0 mi NNW 8.1 mph - N/A   Scattered Clouds
1:56 PM 80.6 °F 81.5 °F 60.8 °F 51% 30.10 in 10.0 mi NNW 10.4 mph - N/A   Scattered Clouds
2:15 PM 80.6 °F 81.5 °F 60.8 °F 51% 30.10 in 10.0 mi NW 9.2 mph - N/A   Scattered Clouds
2:19 PM 80.6 °F 81.5 °F 60.8 °F 51% 30.09 in 10.0 mi NNW 9.2 mph - N/A   Scattered Clouds
2:37 PM 80.6 °F 81.5 °F 60.8 °F 51% 30.09 in 10.0 mi NNW 10.4 mph 16.1 mph N/A   Clear
2:55 PM 80.6 °F 81.1 °F 59.0 °F 48% 30.10 in 10.0 mi North 6.9 mph - N/A   Scattered Clouds
3:15 PM 80.6 °F 81.1 °F 59.0 °F 48% 30.09 in 10.0 mi NW 8.1 mph - N/A   Scattered Clouds
3:16 PM 80.6 °F 81.1 °F 59.0 °F 48% 30.09 in 10.0 mi NW 8.1 mph - N/A   Scattered Clouds
3:35 PM 80.6 °F 81.1 °F 59.0 °F 48% 30.09 in 10.0 mi NNW 6.9 mph - N/A   Scattered Clouds
3:36 PM 80.6 °F 81.1 °F 59.0 °F 48% 30.09 in 10.0 mi NNW 6.9 mph - N/A   Scattered Clouds
3:58 PM 78.8 °F - 59.0 °F 51% 30.09 in 10.0 mi NW 10.4 mph - N/A   Scattered Clouds
4:16 PM 78.8 °F - 59.0 °F 51% 30.08 in 10.0 mi NW 6.9 mph - N/A   Clear
4:35 PM 80.6 °F 81.1 °F 59.0 °F 48% 30.08 in 10.0 mi WNW 9.2 mph - N/A   Clear
4:55 PM 82.4 °F 82.5 °F 59.0 °F 45% 30.08 in 10.0 mi NNW 10.4 mph - N/A   Clear
4:56 PM 82.4 °F 82.9 °F 60.8 °F 48% 30.08 in 10.0 mi NNW 10.4 mph - N/A   Clear
5:15 PM 80.6 °F 81.5 °F 60.8 °F 51% 30.08 in 10.0 mi NNW 9.2 mph - N/A   Clear
5:19 PM 80.6 °F 81.5 °F 60.8 °F 51% 30.08 in 10.0 mi NNW 12.7 mph 18.4 mph N/A   Clear
5:37 PM 80.6 °F 81.5 °F 60.8 °F 51% 30.09 in 10.0 mi North 10.4 mph - N/A   Clear
5:56 PM 80.6 °F 81.1 °F 59.0 °F 48% 30.09 in 10.0 mi North 5.8 mph 16.1 mph N/A   Clear
6:15 PM 78.8 °F - 57.2 °F 47% 30.09 in 10.0 mi NNW 8.1 mph 17.3 mph N/A   Clear
6:16 PM 78.8 °F - 57.2 °F 47% 30.09 in 10.0 mi North 8.1 mph 17.3 mph N/A   Clear
6:35 PM 78.8 °F - 57.2 °F 47% 30.10 in 10.0 mi North 9.2 mph 16.1 mph N/A   Clear
6:58 PM 77.0 °F - 57.2 °F 50% 30.11 in 10.0 mi NNW 4.6 mph - N/A   Clear
7:16 PM 75.2 °F - 57.2 °F 53% 30.11 in 10.0 mi Calm Calm - N/A   Scattered Clouds
7:35 PM 78.8 °F - 59.0 °F 51% 30.11 in 10.0 mi North 3.5 mph - N/A   Mostly Cloudy
7:36 PM 78.8 °F - 59.0 °F 51% 30.11 in 10.0 mi Calm Calm - N/A   Mostly Cloudy
7:55 PM 77.0 °F - 59.0 °F 54% 30.11 in 10.0 mi Calm Calm - N/A   Mostly Cloudy
7:56 PM 77.0 °F - 59.0 °F 54% 30.11 in 10.0 mi NNW 3.5 mph - N/A   Mostly Cloudy
8:15 PM 73.4 °F - 57.2 °F 57% 30.12 in 10.0 mi NNW 3.5 mph - N/A   Mostly Cloudy
8:19 PM 73.4 °F - 57.2 °F 57% 30.12 in 10.0 mi Calm Calm - N/A   Mostly Cloudy
8:37 PM 71.6 °F - 57.2 °F 60% 30.12 in 10.0 mi NNW 3.5 mph - N/A   Mostly Cloudy
8:55 PM 71.6 °F - 57.2 °F 60% 30.13 in 10.0 mi NW 3.5 mph - N/A   Mostly Cloudy
9:15 PM 69.8 °F - 57.2 °F 64% 30.13 in 10.0 mi NNW 3.5 mph - N/A   Overcast
9:16 PM 69.8 °F - 55.4 °F 60% 30.13 in 10.0 mi NNW 4.6 mph - N/A   Overcast
9:35 PM 69.8 °F - 55.4 °F 60% 30.13 in 10.0 mi North 3.5 mph - N/A   Scattered Clouds
9:36 PM 69.8 °F - 55.4 °F 60% 30.13 in 10.0 mi Calm Calm - N/A   Scattered Clouds
9:59 PM 69.8 °F - 55.4 °F 60% 30.14 in 10.0 mi NNW 3.5 mph - N/A   Scattered Clouds
10:16 PM 69.8 °F - 55.4 °F 60% 30.14 in 10.0 mi NNW 4.6 mph - N/A   Clear
10:35 PM 66.2 °F - 53.6 °F 64% 30.14 in 10.0 mi NNW 5.8 mph - N/A   Scattered Clouds
10:55 PM 66.2 °F - 53.6 °F 64% 30.15 in 10.0 mi NNW 4.6 mph - N/A   Scattered Clouds
10:56 PM 66.2 °F - 53.6 °F 64% 30.15 in 10.0 mi NNW 5.8 mph - N/A   Scattered Clouds
11:15 PM 66.2 °F - 53.6 °F 64% 30.15 in 10.0 mi NNW 5.8 mph - N/A   Clear
11:19 PM 66.2 °F - 53.6 °F 64% 30.15 in 10.0 mi NNW 4.6 mph - N/A   Scattered Clouds
11:37 PM 64.4 °F - 53.6 °F 68% 30.15 in 10.0 mi NNW 5.8 mph - N/A   Scattered Clouds
11:55 PM 64.4 °F - 51.8 °F 64% 30.15 in 10.0 mi NNW 4.6 mph - N/A   Clear